DECAYED

STARLINK-2689, 48463 (Decayed)

Orbit data source: Space-Track

STARLINK-2689, 48463 was a payload satellite owned by SpaceX/Seattle (US) in LEO that was launched on Sun, 09 May 2021 UTC via an FALCON 9 launch vehicle from the Air Force Eastern Test Range (AFETR). Payload-class satellites include a variety of spacecraft equipped with specific instruments for various scientific and technological missions. These include communications satellites like Starlink; space stations such as the ISS; scientific satellites like the Hubble; Earth observation satellites from companies like Planet Labs, Umbra, and HawkEye 360; GPS; miniature CubeSats for education and research; and military/defense satellites.

Not visible in the next 10 days
Identifier
48463, 2021-040AM
Orbit
Decayed
Country
Flag of USUS
Related business
Manufacturer
SpaceX/Seattle
Mission
Decayed Commercial Communications
Bus & Motor
STARLINK, Unknown motor
Mass
260 kg wet, ~248 kg dry
Launch date (UTC)
2021-05-09 (5 years ago)
Launch vehicle
FALCON 9
Launch site
Air Force Eastern Test Range (AFETR)
Object type
Payload
Rocket body
Debris
Shape & HBR
Box + 1 Pan, 10.1 m
Radar Cross Section
13.562 m², Large (>1 m²)

Expand to show TLE details & history
Last TLE update: 1 year ago

TLE from 1 year ago
0 STARLINK-2689
1 48463U 21040AM  25010.00310634  .09377148  12254-4  88230-3 0  9998
2 48463  53.0324 272.2322 0004656 232.1572 249.9139 16.37834148204207
Epoch: 2025-01-10T00:04Z
TLE epoch observation values (Epoch: 2025-01-10T00:04:28.387Z)
Latitude
42.78438°
Longitude
-62.4952°
Altitude
176.769 km
Speed
7.805 km/s
True Right ascension
03h 13m 35s
True Declination
42° 35' 52"
Sunlit
Object was in full shadow at epoch
Visualization orbit readout
Latitude
Unknown
Longitude
Unknown
Altitude
Unknown
Speed
Unknown
Apparent Right ascension
Unknown
Apparent Declination
Unknown
Sunlit
N/A
Visualization observer readout
Local Sidereal Time
21:25:23
Azimuth
Unknown
Elevation
Unknown
Doppler factor
Unknown
Orbital elements
Apogee altitude
174.91 km
Perigee altitude
168.81 km
Semi-major axis
6,549.997 km
Eccentricity
0.00047
Inclination
53.0324°
RAAN
272.2322°
Arg. of periapsis
232.1572°
True anomaly
249.8638°
Mean anomaly
249.9139°
Eccentric anomaly
249.88885°
Mean motion
4.09432 °/min
Orbital period
87.93 mins
BSTAR
0.0008823
Loading maneuver chart data...
Computing Atmospheric mass density...

Documentation

Showing up to 5 results
|